[[{"header":{"parameterUnit":"m.s-1","parameterCategory":1,"la1":30.2991,"la2":30.254,"lo1":-89.0895,"lo2":-89.0444,"dy":0.0017,"dx":0.0017,"nx":28,"ny":28,"refTime":"2024-02-25T03:00:00:Z","depth":0,"parameterNumber":2,"parameterNumberName":"U-component_of_WINDS"},"data":[0,0,0,0,0,0,0,0,0,0,0,0,0,0,0,0,0,0,0,0,0,0,0,0,0,0,0,0,0,0,0,0,0,0,0,0,0,0,0,0,0,0,0,0,0,0,0,0,0,0,0,0,0,0,0,0,0,0,-1.004,-1.004,0,-1.0085,-1.0086,-1.0086,-1.0098,-1.0098,-1.0097,-1.0097,-1.0146,-1.0148,-1.0149,0,0,0,0,0,0,0,0,0,0,0,0,0,-0.9967,-0.9968,-1.004,-1.004,-1.0041,-1.0085,-1.0086,-1.0086,-1.0098,-1.0098,-1.0097,-1.0097,-1.0146,-1.0147,-1.0149,0,0,0,0,0,0,0,0,0,0,0,0,0,-1.0004,-0.9969,-1.004,-1.0052,-1.0054,-1.0085,-1.0086,-1.0086,-1.0098,-1.0098,-1.0097,-1.0097,-1.0145,-1.0147,-1.0149,-1.0172,0,0,-1.0157,-1.0158,0,0,0,0,0,0,0,0,-1.0002,-1.0007,-1.005,-1.0051,-1.0053,-1.0085,-1.0078,-1.0115,-1.0098,-1.0081,-1.0097,-1.0097,-1.0126,-1.013,-1.014,-1.0175,-1.0177,-1.0157,-1.0158,-1.0159,-1.016,0,0,0,0,0,0,0,-0.9999,-1.0005,-1.0058,-1.005,-1.0052,-1.0057,-1.0061,-1.0085,-1.0106,-1.0083,-1.0084,-1.0089,-1.0127,-1.0137,-1.0141,-1.0177,-1.0157,-1.0159,-1.016,-1.0161,-1.0235,-1.0236,0,0,0,0,0,0,-0.9994,-1.0003,-1.0056,-1.0059,-1.0026,-1.0058,-1.0064,-1.0076,-1.0105,-1.011,-1.0089,-1.0089,-1.0134,-1.0138,-1.0143,-1.0172,-1.0159,-1.0161,-1.0163,-1.0235,-1.0235,-1.0236,0,0,0,0,0,0,-0.9993,-0.9999,-1.0054,-1.0031,-1.0039,-1.006,-1.0073,-1.0077,-1.0087,-1.011,-1.0114,-1.0095,-1.0133,-1.0139,-1.0165,-1.0174,-1.0163,-1.0165,-1.0234,-1.0235,-1.0236,-1.0231,0,0,0,0,0,0,-0.9991,-0.9998,-1.0006,-1.0031,-1.004,-1.0075,-1.0074,-1.0078,-1.009,-1.0091,-1.0117,-1.0121,-1.0134,-1.0162,-1.0167,-1.0177,-1.0166,-1.0233,-1.0234,-1.0235,-1.023,-1.0231,-1.0232,0,0,0,0,0,-0.9988,-1.0003,-1.0007,-1.0013,-1.005,-1.0075,-1.008,-1.0093,-1.0091,-1.01,-1.0115,-1.012,-1.0172,-1.0164,-1.0171,-1.0181,-1.0233,-1.0234,-1.0235,-1.023,-1.0231,-1.0232,0,0,0,0,0,0,-0.9979,-1.0007,-1.0011,-1.0034,-1.0052,-1.0077,-1.0089,-1.0094,-1.0114,-1.0114,-1.013,-1.0136,-1.0161,-1.0174,-1.0164,-1.0206,-1.0203,-1.0205,-1.0196,-1.0198,-1.0199,-1.0195,-1.0168,0,0,0,0,0,-0.998,-0.9997,-1.0021,-1.004,-1.0048,-1.0067,-1.0079,-1.0087,-1.0107,-1.0115,-1.0132,-1.0152,-1.0173,-1.0186,-1.0206,-1.0232,-1.0239,-1.0243,-1.0244,-1.0245,-1.0247,-1.0263,-1.0265,-1.024,-1.024,-1.024,0,0,-0.9982,-0.9999,-1.0009,-1.0038,-1.0053,-1.0072,-1.0073,-1.0093,-1.0107,-1.0118,-1.0143,-1.0157,-1.018,-1.0206,-1.0219,-1.0218,-1.0255,-1.0246,-1.0247,-1.0248,-1.0264,-1.0267,-1.0269,-1.0241,-1.0241,-1.0241,0,0,-0.9995,-1.0009,-1.0027,-1.0042,-1.0064,-1.0077,-1.0081,-1.0106,-1.0115,-1.014,-1.0149,-1.0167,-1.0203,-1.0219,-1.0232,-1.0253,-1.0259,-1.0259,-1.0264,-1.028,-1.0282,-1.0284,-1.0291,-1.0294,-1.0261,-1.0261,-1.0261,0,-0.9994,-1.0022,-1.0035,-1.0054,-1.0068,-1.0078,-1.0097,-1.0111,-1.014,-1.0149,-1.0148,-1.0193,-1.0209,-1.024,-1.0245,-1.0255,-1.0261,-1.0256,-1.028,-1.0282,-1.0284,-1.0292,-1.0295,-1.0261,-1.0261,-1.0261,-1.0261,0,-1.0021,-1.004,-1.0051,-1.0078,-1.0093,-1.0111,-1.0129,-1.0142,-1.015,-1.0164,-1.019,-1.0211,-1.0236,-1.0244,-1.0252,-1.0276,-1.0275,-1.0277,-1.0274,-1.0286,-1.0294,-1.0297,-1.0261,-1.0261,-1.0261,-1.0261,0,0,-1.0028,-1.0063,-1.0067,-1.0079,-1.0106,-1.0121,-1.0142,-1.0166,-1.0177,-1.0197,-1.0215,-1.0245,-1.0248,-1.0262,-1.0273,-1.0286,-1.0302,-1.0287,-1.0287,-1.0289,-1.0331,-1.0329,-1.0333,-1.0307,-1.0307,-1.0308,-1.0329,0,-1.0045,-1.0079,-1.0093,-1.0122,-1.014,-1.0151,-1.0169,-1.0188,-1.0201,-1.022,-1.0235,-1.0257,-1.0258,-1.0267,-1.0281,-1.0297,-1.0311,-1.0296,-1.0324,-1.0325,-1.0318,-1.0336,-1.0334,-1.0354,-1.0332,-1.0333,-1.0333,0,-1.0068,-1.0087,-1.0118,-1.0143,-1.0151,-1.0167,-1.019,-1.0208,-1.023,-1.0239,-1.0256,-1.0266,-1.0289,-1.0285,-1.0318,-1.0307,-1.032,-1.0331,-1.0332,-1.0334,-1.0329,-1.034,-1.036,-1.0363,-1.0338,-1.0338,-1.0337,0,-1.0071,-1.0105,-1.0128,-1.0138,-1.0168,-1.0179,-1.0192,-1.0213,-1.0227,-1.0249,-1.0258,-1.0282,-1.0296,-1.0315,-1.0331,-1.0327,-1.0363,-1.036,-1.0372,-1.0371,-1.0378,-1.0377,-1.04,-1.0387,-1.0386,-1.0386,-1.0386,0,-1.0087,-1.0106,-1.0129,-1.0143,-1.0165,-1.0181,-1.0202,-1.0216,-1.0236,-1.0254,-1.0266,-1.0283,-1.0304,-1.0324,-1.0337,-1.0363,-1.0369,-1.0377,-1.038,-1.0376,-1.0375,-1.0384,-1.0383,-1.0387,-1.0387,-1.0387,-1.0387,0,-1.0094,-1.011,-1.0136,-1.0162,-1.0169,-1.0184,-1.0207,-1.0222,-1.0236,-1.0259,-1.0265,-1.0288,-1.0312,-1.0331,-1.0363,-1.0372,-1.0399,-1.0403,-1.0391,-1.0393,-1.0403,-1.0402,-1.0433,-1.0438,-1.0421,-1.0421,-1.0421,0,-1.0103,-1.0117,-1.0145,-1.0157,-1.017,-1.019,-1.0205,-1.0222,-1.0236,-1.0264,-1.0276,-1.0301,-1.0321,-1.036,-1.038,-1.0405,-1.041,-1.0419,-1.0413,-1.0409,-1.041,-1.0409,-1.0411,-1.0419,-1.0419,-1.042,-1.042,0,-1.0118,-1.0126,-1.0145,-1.0168,-1.0184,-1.0203,-1.0223,-1.0233,-1.0254,-1.027,-1.0294,-1.0311,-1.0343,-1.0369,-1.0396,-1.0411,-1.0419,-1.0421,-1.0425,-1.0421,-1.0413,-1.0418,-1.0393,-1.042,-1.042,-1.042,-1.042,-1.042,-1.0127,-1.014,-1.0162,-1.0183,-1.02,-1.0218,-1.0233,-1.0249,-1.027,-1.0297,-1.0306,-1.0332,-1.0356,-1.0393,-1.0408,-1.043,-1.043,-1.0435,-1.0437,-1.0438,-1.0438,-1.041,-1.0435,-1.0435,-1.0435,-1.0435,-1.0435,0,-1.0143,-1.0157,-1.0177,-1.0203,-1.0221,-1.0226,-1.0248,-1.0263,-1.0285,-1.0306,-1.0326,-1.0355,-1.038,-1.0403,-1.0429,-1.0442,-1.0446,-1.0448,-1.0447,-1.0451,-1.0436,-1.043,-1.0444,-1.0444,-1.0444,-1.0444,-1.0444,-1.0444,-1.0153,-1.0176,-1.0186,-1.0219,-1.0234,-1.0258,-1.027,-1.0287,-1.0304,-1.0336,-1.0356,-1.037,-1.0392,-1.042,-1.0444,-1.045,-1.0459,-1.046,-1.0467,-1.0453,-1.0451,-1.045,-1.0445,-1.0462,-1.0462,-1.048,-1.048,-1.048]},{"header":{"parameterUnit":"m.s-1","parameterCategory":1,"la1":30.2991,"la2":30.254,"lo1":-89.0895,"lo2":-89.0444,"dy":0.0017,"dx":0.0017,"nx":28,"ny":28,"refTime":"2024-02-25T03:00:00:Z","depth":0,"parameterNumber":3,"parameterNumberName":"V-component_of_WINDS"},"data":[0,0,0,0,0,0,0,0,0,0,0,0,0,0,0,0,0,0,0,0,0,0,0,0,0,0,0,0,0,0,0,0,0,0,0,0,0,0,0,0,0,0,0,0,0,0,0,0,0,0,0,0,0,0,0,0,0,0,2.0541,2.0542,0,2.0652,2.0654,2.0655,2.0666,2.0665,2.0664,2.0663,2.0774,2.0778,2.0782,0,0,0,0,0,0,0,0,0,0,0,0,0,2.0335,2.0339,2.0541,2.0542,2.0544,2.0652,2.0654,2.0655,2.0666,2.0665,2.0664,2.0662,2.0773,2.0778,2.0783,0,0,0,0,0,0,0,0,0,0,0,0,0,2.0433,2.034,2.0541,2.0562,2.0565,2.0652,2.0654,2.0656,2.0667,2.0665,2.0663,2.0662,2.0772,2.0777,2.0783,2.0855,0,0,2.0802,2.0804,0,0,0,0,0,0,0,0,2.0428,2.0441,2.0558,2.0561,2.0565,2.0644,2.0622,2.0722,2.0667,2.0628,2.0663,2.0661,2.0732,2.0741,2.0766,2.086,2.0865,2.0802,2.0806,2.0809,2.081,0,0,0,0,0,0,0,2.0421,2.0436,2.0585,2.0559,2.0564,2.0566,2.0578,2.0641,2.0688,2.0631,2.0633,2.0646,2.0734,2.076,2.0769,2.0867,2.0802,2.0808,2.0811,2.0814,2.1025,2.1027,0,0,0,0,0,0,2.041,2.043,2.0581,2.0588,2.0491,2.0571,2.0584,2.062,2.0688,2.0696,2.0647,2.0646,2.0751,2.0762,2.0773,2.0861,2.0809,2.0814,2.0818,2.1023,2.1025,2.1027,0,0,0,0,0,0,2.0406,2.0424,2.0577,2.051,2.0529,2.0576,2.0616,2.0623,2.065,2.07,2.0708,2.0666,2.075,2.0764,2.0835,2.0865,2.0817,2.0822,2.102,2.1024,2.1026,2.1039,0,0,0,0,0,0,2.04,2.0422,2.045,2.051,2.0533,2.0638,2.0618,2.0627,2.066,2.066,2.0719,2.0727,2.0749,2.0825,2.0841,2.0873,2.0827,2.1018,2.1022,2.1025,2.1036,2.1042,2.1047,0,0,0,0,0,2.0392,2.0449,2.0452,2.047,2.057,2.064,2.0653,2.0678,2.0663,2.0691,2.0723,2.0725,2.0859,2.0833,2.085,2.0884,2.1016,2.1021,2.1025,2.1034,2.1041,2.1047,0,0,0,0,0,0,2.0391,2.0457,2.0461,2.0539,2.0584,2.0642,2.0679,2.0685,2.0734,2.0732,2.0759,2.0773,2.0842,2.087,2.0839,2.0957,2.0936,2.0944,2.0937,2.0944,2.0949,2.0942,2.0832,0,0,0,0,0,2.04,2.0452,2.0507,2.057,2.0593,2.0632,2.0663,2.0679,2.0726,2.0745,2.0782,2.0827,2.0879,2.0913,2.0963,2.1039,2.1053,2.1071,2.1077,2.1081,2.1088,2.1131,2.114,2.1042,2.1042,2.1042,0,0,2.0419,2.0461,2.0493,2.0571,2.0608,2.0661,2.0648,2.0704,2.0744,2.0753,2.0823,2.0851,2.0903,2.0976,2.1011,2.1002,2.1118,2.1087,2.109,2.1095,2.1136,2.1146,2.1154,2.1045,2.1044,2.1044,0,0,2.0481,2.0518,2.0575,2.0612,2.0667,2.0693,2.0706,2.0763,2.0783,2.0853,2.0861,2.0907,2.0997,2.1034,2.1064,2.1138,2.1142,2.1154,2.1183,2.1224,2.1232,2.1239,2.1266,2.1275,2.116,2.116,2.116,0,2.0497,2.0578,2.0603,2.066,2.0694,2.0705,2.0763,2.0797,2.0866,2.0889,2.0878,2.099,2.1025,2.1108,2.1126,2.115,2.1166,2.1148,2.1229,2.1236,2.1243,2.1269,2.1279,2.1161,2.1161,2.1161,2.1161,0,2.0596,2.0652,2.0691,2.0758,2.0796,2.0853,2.0886,2.0921,2.0933,2.0959,2.103,2.1073,2.1133,2.1153,2.1164,2.1237,2.123,2.1223,2.1203,2.1253,2.1278,2.1289,2.1163,2.1163,2.1162,2.1162,0,0,2.0662,2.0742,2.0756,2.0786,2.0848,2.0891,2.0947,2.1007,2.1037,2.1083,2.1131,2.1206,2.12,2.1235,2.125,2.1286,2.1343,2.1275,2.1277,2.1287,2.1426,2.1431,2.1443,2.1345,2.1347,2.1348,2.1422,0,2.0732,2.0834,2.0858,2.0946,2.0998,2.1008,2.1057,2.11,2.1125,2.1172,2.1199,2.1253,2.1241,2.1262,2.1297,2.1328,2.1371,2.1323,2.139,2.1392,2.1378,2.1456,2.1462,2.153,2.1432,2.1433,2.1434,0,2.0828,2.0877,2.097,2.1024,2.1047,2.1091,2.1147,2.1191,2.1239,2.1255,2.1293,2.1305,2.1363,2.1339,2.1419,2.1386,2.1414,2.1433,2.1436,2.1445,2.1417,2.1467,2.1552,2.1562,2.145,2.1449,2.1448,0,2.0868,2.0957,2.1025,2.105,2.1115,2.1146,2.1174,2.122,2.1254,2.1302,2.1324,2.1378,2.1408,2.1448,2.1474,2.1454,2.1553,2.153,2.1567,2.1567,2.1589,2.1588,2.1681,2.1605,2.1605,2.1605,2.1604,0,2.0944,2.1001,2.1044,2.1085,2.1149,2.1175,2.1237,2.1265,2.1305,2.1352,2.1363,2.1406,2.1436,2.1484,2.1503,2.1567,2.158,2.1594,2.1599,2.1595,2.1593,2.1615,2.1611,2.1607,2.1607,2.1606,2.1606,0,2.1001,2.1032,2.1106,2.1161,2.1176,2.1221,2.1267,2.1307,2.1332,2.1391,2.1406,2.1446,2.1502,2.153,2.16,2.1613,2.1685,2.1687,2.167,2.1672,2.1708,2.1705,2.182,2.1836,2.1748,2.1749,2.1749,0,2.1049,2.1093,2.1153,2.1185,2.1214,2.1266,2.13,2.1326,2.1362,2.1419,2.1452,2.1509,2.1556,2.1645,2.1679,2.1732,2.1735,2.1772,2.1743,2.1737,2.1737,2.1735,2.174,2.1777,2.1778,2.1779,2.1779,0,2.1131,2.1144,2.1194,2.1249,2.129,2.1334,2.1378,2.1403,2.1436,2.1475,2.1533,2.157,2.1641,2.1697,2.1752,2.178,2.1786,2.1788,2.1799,2.1796,2.1785,2.1792,2.1685,2.1785,2.1785,2.1784,2.1784,2.1784,2.1186,2.1226,2.1274,2.1328,2.1364,2.1404,2.1445,2.1475,2.1524,2.1585,2.1596,2.1657,2.1703,2.1778,2.1807,2.1855,2.1847,2.1864,2.1868,2.1873,2.1875,2.1776,2.1865,2.1865,2.1865,2.1865,2.1864,0,2.127,2.1301,2.1351,2.1412,2.1455,2.1455,2.1503,2.1539,2.1593,2.1635,2.1681,2.1747,2.1801,2.1839,2.1894,2.1925,2.1929,2.1939,2.1937,2.1944,2.1878,2.1863,2.1935,2.1935,2.1935,2.1935,2.1935,2.1935,2.1318,2.1386,2.1404,2.1488,2.1518,2.1579,2.1607,2.1644,2.1677,2.1751,2.1796,2.182,2.1861,2.1918,2.1968,2.1977,2.1998,2.2008,2.2017,2.1956,2.1948,2.1941,2.1928,2.2011,2.2012,2.2079,2.208,2.2081]}]]